This is the latest recevied weather packets stored in our database for station/object EA7BW-10. If no packets are shown the sender has not sent any weather packets the latest 10 day(s).
| Time | Temp. | Humidity | Pressure | Rain* | Wind** | Luminosity | Snow |
|---|---|---|---|---|---|---|---|
| 1777612985 | 12.22° C | 60% | 1013 hPa | - | - | - | - |
| 1777611785 | 12.22° C | 60% | 1012.9 hPa | - | - | - | - |
| 1777610585 | 12.22° C | 60% | 1013 hPa | - | - | - | - |
| 1777609385 | 12.78° C | 59% | 1013 hPa | - | - | - | - |
| 1777608185 | 12.78° C | 59% | 1013.1 hPa | - | - | - | - |
| 1777606985 | 12.78° C | 58% | 1013 hPa | - | - | - | - |
| 1777605785 | 13.33° C | 58% | 1013 hPa | - | - | - | - |
| 1777604585 | 13.33° C | 58% | 1013 hPa | - | - | - | - |
| 1777603385 | 13.33° C | 57% | 1012.7 hPa | - | - | - | - |
| 1777602185 | 13.89° C | 57% | 1012.6 hPa | - | - | - | - |
| 1777600984 | 13.33° C | 57% | 1012.5 hPa | - | - | - | - |
| 1777599784 | 13.89° C | 56% | 1012.5 hPa | - | - | - | - |
| 1777598584 | 14.44° C | 55% | 1012.4 hPa | - | - | - | - |
| 1777597384 | 14.44° C | 54% | 1012.5 hPa | - | - | - | - |
| 1777596184 | 15° C | 54% | 1012.6 hPa | - | - | - | - |
| 1777594984 | 15° C | 54% | 1012.6 hPa | - | - | - | - |
| 1777593784 | 15.56° C | 52% | 1012.5 hPa | - | - | - | - |
| 1777592584 | 16.11° C | 52% | 1012.5 hPa | - | - | - | - |
| 1777591384 | 16.67° C | 51% | 1012.5 hPa | - | - | - | - |
| 1777590184 | 17.22° C | 50% | 1012.3 hPa | - | - | - | - |
| 1777588984 | 17.22° C | 50% | 1012.3 hPa | - | - | - | - |
| 1777587783 | 17.78° C | 49% | 1012.1 hPa | - | - | - | - |
| 1777586583 | 18.33° C | 48% | 1012.2 hPa | - | - | - | - |
| 1777585383 | 18.89° C | 48% | 1012 hPa | - | - | - | - |
| 1777584183 | 19.44° C | 47% | 1011.8 hPa | - | - | - | - |
* Rain since midnight (hover to see other rain measurements)
** Current wind speed in m/s (hover to see current wind gust speed)